Reading, PA

6:21 AM EST on December 13, 2019 (GMT -0500)
Reading Regional-Spaatz

Weather History for KRDG - November, 2019

Change the Weather History Date:

Saturday, November 16, 2019

  Actual Average Record
Temperature  
Mean Temperature 34 °F 44 °F  
Max Temperature 42 °F 53 °F 76 °F (1993)
Min Temperature 26 °F 35 °F 4 °F (1908)
Degree Days  
Heating Degree Days 31 21  
Month to date heating degree days 397 296  
Since 1 July heating degree days 636 734  
Cooling Degree Days 0 0  
Month to date cooling degree days 0 0  
Year to date cooling degree days 1239 896  
Moisture  
Dew Point 11 °F    
Average Humidity 40    
Maximum Humidity 73    
Minimum Humidity 18    
Precipitation  
Precipitation 0.00 in 0.11 in 1.74 in (1983)
Month to date precipitation 0.43 1.71  
Year to date precipitation 49.19 38.23  
Sea Level Pressure  
Sea Level Pressure 30.40 in    
Wind  
Wind Speed 8 mph ()    
Max Wind Speed 21 mph    
Max Gust Speed 28 mph    
Visibility 10.0 miles    
Events      
T = Trace of Precipitation, MM = Missing Value Source: Averaged Metar Reports

Daily Weather History Graph

Daily Weather History Graph

Search for Another Location

Airport or City:

Astronomy

Nov. 16, 2019 Rise Set
Actual Time 6:50 AM EST 4:45 PM EST
Civil Twilight 6:21 AM EST 5:15 PM EST
Nautical Twilight 5:48 AM EST 5:48 PM EST
Astronomical Twilight 5:16 AM EST 6:20 PM EST
Moon 8:16 PM EST (11/16) 10:42 AM EST (11/16)
Length of Visible Light 10h 53m
Length of Day
9h 55m
Waning Gibbous, 82% of the Moon is Illuminated
Nov 16
Waning Gibbous
Nov 19
Last Quarter
Nov 26
New
Dec 4
First Quarter
Dec 12
Full

Hourly Weather History & Observations

Time (EST) Temp. Windchill Dew Point Humidity Pressure Visibility Wind Dir Wind Speed Gust Speed Precip Events Conditions
12:54 AM 37.0 °F 31.0 °F 28.9 °F 73% 30.28 in 10.0 mi North 8.1 mph - N/A   Clear
1:54 AM 37.0 °F 32.4 °F 26.1 °F 65% 30.29 in 10.0 mi North 5.8 mph - N/A   Clear
2:54 AM 37.0 °F 30.4 °F 25.0 °F 62% 30.29 in 10.0 mi North 9.2 mph - N/A   Clear
3:54 AM 36.0 °F 28.5 °F 25.0 °F 64% 30.30 in 10.0 mi North 10.4 mph - N/A   Clear
4:54 AM 36.0 °F 28.5 °F 25.0 °F 64% 30.33 in 10.0 mi NNE 10.4 mph - N/A   Clear
5:54 AM 35.1 °F 26.9 °F 23.0 °F 61% 30.37 in 10.0 mi North 11.5 mph 20.7 mph N/A   Scattered Clouds
6:54 AM 34.0 °F 26.6 °F 21.0 °F 59% 30.41 in 10.0 mi NNE 9.2 mph - N/A   Clear
7:54 AM 34.0 °F 26.0 °F 19.0 °F 54% 30.44 in 10.0 mi NNE 10.4 mph - N/A   Clear
8:54 AM 36.0 °F 29.0 °F 17.1 °F 46% 30.45 in 10.0 mi ENE 9.2 mph - N/A   Clear
9:54 AM 37.0 °F 28.9 °F 8.1 °F 30% 30.46 in 10.0 mi ENE 12.7 mph - N/A   Clear
10:54 AM 37.9 °F 29.6 °F 3.0 °F 23% 30.46 in 10.0 mi ENE 13.8 mph 24.2 mph N/A   Clear
11:54 AM 39.9 °F 32.5 °F 3.0 °F 21% 30.44 in 10.0 mi ENE 12.7 mph 25.3 mph N/A   Clear
12:54 PM 41.0 °F 34.3 °F 1.9 °F 20% 30.43 in 10.0 mi ENE 11.5 mph 19.6 mph N/A   Clear
1:54 PM 41.0 °F 33.5 °F 3.0 °F 21% 30.40 in 10.0 mi NNE 13.8 mph 20.7 mph N/A   Clear
2:54 PM 41.0 °F 33.5 °F 3.9 °F 21% 30.41 in 10.0 mi NNE 13.8 mph 20.7 mph N/A   Clear
3:54 PM 39.9 °F 33.4 °F 3.0 °F 21% 30.41 in 10.0 mi NE 10.4 mph - N/A   Clear
4:54 PM 37.9 °F 32.1 °F 3.0 °F 23% 30.43 in 10.0 mi NE 8.1 mph - N/A   Clear
5:54 PM 36.0 °F 29.6 °F 1.0 °F 23% 30.44 in 10.0 mi NE 8.1 mph - N/A   Clear
6:54 PM 35.1 °F 29.3 °F -0.9 °F 22% 30.45 in 10.0 mi NE 6.9 mph - N/A   Clear
7:54 PM 34.0 °F 27.2 °F 1.0 °F 25% 30.45 in 10.0 mi NE 8.1 mph - N/A   Clear
8:54 PM 33.1 °F 26.1 °F 3.0 °F 28% 30.43 in 10.0 mi ENE 8.1 mph - N/A   Clear
9:54 PM 32.0 °F 24.8 °F 6.1 °F 34% 30.43 in 10.0 mi NE 8.1 mph - N/A   Clear
10:54 PM 28.0 °F 22.8 °F 8.1 °F 43% 30.43 in 10.0 mi NNW 4.6 mph - N/A   Clear
11:54 PM 27.0 °F 21.6 °F 10.0 °F 49% 30.43 in 10.0 mi North 4.6 mph - N/A   Clear